EN

Hourly Weather Dziewule

Today, 20 October, Tuesday

Time Temperature Precipitation Wind Pressure Humidity
00:00 +3°C° 0 mm 3 mps 753 mmHg 88%
01:00 +3°C° 0 mm 3 mps 753 mmHg 89%
02:00 +3°C° 0 mm 3 mps 753 mmHg 90%
03:00 +3°C° 0 mm 3 mps 753 mmHg 91%
04:00 +2°C° 0 mm 3 mps 753 mmHg 92%
05:00 +3°C° 0 mm 3 mps 753 mmHg 92%
06:00 +3°C° 0 mm 3 mps 754 mmHg 91%
07:00 +4°C° 0 mm 2 mps 754 mmHg 91%
08:00 +5°C° 0 mm 2 mps 754 mmHg 85%
09:00 +6°C° 0 mm 2 mps 754 mmHg 80%
10:00 +8°C° 0 mm 2 mps 754 mmHg 74%
11:00 +9°C° 0 mm 3 mps 754 mmHg 71%
12:00 +9°C° 0 mm 3 mps 754 mmHg 67%
13:00 +10°C° 0 mm 3 mps 754 mmHg 63%
14:00 +10°C° 0 mm 3 mps 753 mmHg 67%
15:00 +9°C° 0 mm 3 mps 753 mmHg 71%
16:00 +9°C° 0 mm 3 mps 752 mmHg 75%
17:00 +8°C° 0 mm 3 mps 752 mmHg 75%
18:00 +8°C° 0 mm 3 mps 752 mmHg 76%
19:00 +7°C° 0 mm 4 mps 752 mmHg 77%
20:00 +7°C° 0 mm 4 mps 751 mmHg 78%
21:00 +7°C° 0 mm 5 mps 751 mmHg 79%
22:00 +7°C° 0 mm 5 mps 750 mmHg 79%
23:00 +7°C° 0 mm 5 mps 750 mmHg 80%

Tomorrow, 21 October, Wednesday

Time Temperature Precipitation Wind Pressure Humidity
00:00 +6°C° 0 mm 5 mps 750 mmHg 81%
01:00 +6°C° 0 mm 5 mps 749 mmHg 82%
02:00 +6°C° 0 mm 5 mps 749 mmHg 81%
03:00 +6°C° 0 mm 5 mps 749 mmHg 80%
04:00 +6°C° 0 mm 5 mps 749 mmHg 79%
05:00 +7°C° 0 mm 5 mps 748 mmHg 77%
06:00 +7°C° 0 mm 5 mps 748 mmHg 74%
07:00 +7°C° 0 mm 5 mps 748 mmHg 72%
08:00 +8°C° 0 mm 6 mps 748 mmHg 70%
09:00 +9°C° 0 mm 6 mps 748 mmHg 67%
10:00 +10°C° 0 mm 6 mps 747 mmHg 65%
11:00 +10°C° 0 mm 5 mps 747 mmHg 64%
12:00 +12°C° 0 mm 5 mps 747 mmHg 63%
13:00 +13°C° 0 mm 4 mps 747 mmHg 62%
14:00 +12°C° 0 mm 4 mps 747 mmHg 64%
15:00 +12°C° 0 mm 3 mps 747 mmHg 66%
16:00 +11°C° 0 mm 3 mps 747 mmHg 68%
17:00 +11°C° 0 mm 3 mps 747 mmHg 69%
18:00 +11°C° 0 mm 3 mps 747 mmHg 70%
19:00 +11°C° 0 mm 3 mps 747 mmHg 71%
20:00 +10°C° 0 mm 3 mps 747 mmHg 72%
21:00 +10°C° 0 mm 3 mps 747 mmHg 74%
22:00 +10°C° 0 mm 4 mps 747 mmHg 75%
23:00 +8°C° 0 mm 4 mps 747 mmHg 76%

Day after tomorrow, 22 October, Thursday

Time Temperature Precipitation Wind Pressure Humidity
00:00 +8°C° 0 mm 5 mps 747 mmHg 77%
01:00 +8°C° 0 mm 5 mps 747 mmHg 78%
02:00 +8°C° 0 mm 5 mps 747 mmHg 78%
03:00 +9°C° 0 mm 5 mps 747 mmHg 78%
04:00 +9°C° 0 mm 5 mps 747 mmHg 78%
05:00 +9°C° 0 mm 5 mps 747 mmHg 79%
06:00 +9°C° 0 mm 5 mps 747 mmHg 79%
07:00 +10°C° 0 mm 4 mps 747 mmHg 80%
08:00 +10°C° 0 mm 5 mps 748 mmHg 76%
09:00 +13°C° 0 mm 5 mps 748 mmHg 73%
10:00 +14°C° 0 mm 5 mps 748 mmHg 69%
11:00 +15°C° 0 mm 5 mps 748 mmHg 67%
12:00 +16°C° 0 mm 5 mps 748 mmHg 65%
13:00 +17°C° 0 mm 5 mps 748 mmHg 64%
14:00 +17°C° 0 mm 4 mps 748 mmHg 67%
15:00 +15°C° 0 mm 4 mps 748 mmHg 71%
16:00 +16°C° 0 mm 3 mps 747 mmHg 75%
17:00 +14°C° 0 mm 4 mps 747 mmHg 77%
18:00 +13°C° 0 mm 4 mps 747 mmHg 79%
19:00 +13°C° 0 mm 4 mps 747 mmHg 80%
20:00 +12°C° 0 mm 4 mps 747 mmHg 81%
21:00 +12°C° 0 mm 4 mps 747 mmHg 82%
22:00 +11°C° 0 mm 4 mps 747 mmHg 82%
23:00 +11°C° 0 mm 4 mps 747 mmHg 83%

23 October, Friday

Time Temperature Precipitation Wind Pressure Humidity
00:00 +11°C° 0 mm 4 mps 747 mmHg 83%
01:00 +11°C° 0 mm 4 mps 746 mmHg 83%
02:00 +11°C° 0 mm 4 mps 746 mmHg 83%
03:00 +11°C° 0 mm 3 mps 746 mmHg 84%
04:00 +10°C° 0 mm 3 mps 746 mmHg 84%
05:00 +10°C° 0 mm 3 mps 745 mmHg 83%
06:00 +11°C° 0 mm 3 mps 745 mmHg 83%
07:00 +11°C° 0 mm 4 mps 745 mmHg 83%
08:00 +12°C° 0 mm 4 mps 745 mmHg 80%
09:00 +13°C° 0 mm 4 mps 745 mmHg 77%
10:00 +14°C° 0 mm 4 mps 745 mmHg 73%
11:00 +14°C° 0 mm 4 mps 744 mmHg 72%
12:00 +15°C° 0 mm 4 mps 744 mmHg 70%
13:00 +16°C° 0 mm 3 mps 744 mmHg 68%
14:00 +16°C° 0 mm 3 mps 744 mmHg 72%
15:00 +14°C° 0 mm 3 mps 744 mmHg 75%
16:00 +15°C° 0 mm 2 mps 743 mmHg 78%
17:00 +14°C° 0 mm 2 mps 743 mmHg 81%
18:00 +14°C° 0 mm 2 mps 743 mmHg 84%
19:00 +13°C° 0 mm 2 mps 743 mmHg 87%
20:00 +13°C° 0 mm 2 mps 744 mmHg 88%
21:00 +13°C° 0 mm 2 mps 744 mmHg 90%
22:00 +13°C° 0 mm 2 mps 744 mmHg 91%
23:00 +13°C° 0 mm 2 mps 744 mmHg 91%

24 October, Saturday

Time Temperature Precipitation Wind Pressure Humidity
00:00 +13°C° 0 mm 1 mps 744 mmHg 92%
01:00 +13°C° 0 mm 1 mps 743 mmHg 92%
02:00 +13°C° 0 mm 2 mps 743 mmHg 91%
03:00 +12°C° 0 mm 2 mps 743 mmHg 91%
04:00 +12°C° 0 mm 2 mps 743 mmHg 91%
05:00 +11°C° 0.1 mm 3 mps 743 mmHg 90%
06:00 +11°C° 0.1 mm 3 mps 743 mmHg 89%
07:00 +11°C° 0.1 mm 4 mps 742 mmHg 88%
08:00 +12°C° 0.3 mm 4 mps 742 mmHg 89%
09:00 +12°C° 0.3 mm 4 mps 742 mmHg 91%
10:00 +12°C° 0.3 mm 4 mps 742 mmHg 92%
11:00 +12°C° 0.7 mm 5 mps 742 mmHg 92%
12:00 +12°C° 0.7 mm 5 mps 742 mmHg 92%
13:00 +12°C° 0.7 mm 5 mps 742 mmHg 91%
14:00 +12°C° 0.2 mm 5 mps 742 mmHg 87%
15:00 +12°C° 0.2 mm 5 mps 742 mmHg 82%
16:00 +11°C° 0.2 mm 6 mps 742 mmHg 77%
17:00 +11°C° 0 mm 6 mps 743 mmHg 80%
18:00 +10°C° 0 mm 6 mps 743 mmHg 83%
19:00 +9°C° 0 mm 6 mps 744 mmHg 86%
20:00 +9°C° 0.4 mm 6 mps 744 mmHg 86%
21:00 +8°C° 0.4 mm 6 mps 745 mmHg 87%
22:00 +8°C° 0.4 mm 6 mps 745 mmHg 87%
23:00 +8°C° 0.3 mm 6 mps 745 mmHg 87%

25 October, Sunday

Time Temperature Precipitation Wind Pressure Humidity
00:00 +8°C° 0.3 mm 6 mps 746 mmHg 87%
01:00 +7°C° 0.3 mm 6 mps 746 mmHg 87%
02:00 +7°C° 0 mm 5 mps 746 mmHg 86%
03:00 +7°C° 0 mm 5 mps 747 mmHg 86%
04:00 +7°C° 0 mm 5 mps 747 mmHg 86%
05:00 +6°C° 0 mm 5 mps 747 mmHg 88%
06:00 +6°C° 0 mm 5 mps 748 mmHg 89%
07:00 +6°C° 0 mm 5 mps 748 mmHg 91%
08:00 +7°C° 0 mm 5 mps 749 mmHg 85%
09:00 +8°C° 0 mm 5 mps 749 mmHg 78%
10:00 +9°C° 0 mm 5 mps 749 mmHg 72%
11:00 +11°C° 0 mm 4 mps 750 mmHg 70%
12:00 +11°C° 0 mm 4 mps 750 mmHg 68%
13:00 +12°C° 0 mm 4 mps 750 mmHg 66%
14:00 +11°C° 0 mm 3 mps 750 mmHg 70%
15:00 +11°C° 0 mm 3 mps 750 mmHg 74%
16:00 +10°C° 0 mm 2 mps 750 mmHg 78%
17:00 +9°C° 0 mm 2 mps 750 mmHg 81%
18:00 +10°C° 0 mm 1 mps 750 mmHg 84%
19:00 +9°C° 0 mm 1 mps 750 mmHg 86%
20:00 +9°C° 0 mm 1 mps 751 mmHg 87%
21:00 +8°C° 0 mm 1 mps 751 mmHg 88%
22:00 +8°C° 0 mm 1 mps 751 mmHg 89%
23:00 +8°C° 0 mm 1 mps 751 mmHg 90%

26 October, Monday

Time Temperature Precipitation Wind Pressure Humidity
00:00 +8°C° 0 mm 1 mps 751 mmHg 90%
01:00 +7°C° 0 mm 1 mps 751 mmHg 91%
02:00 +6°C° 0 mm 2 mps 751 mmHg 91%
03:00 +6°C° 0 mm 2 mps 751 mmHg 92%
04:00 +6°C° 0 mm 2 mps 751 mmHg 92%
05:00 +5°C° 0 mm 2 mps 751 mmHg 92%
06:00 +5°C° 0 mm 2 mps 751 mmHg 92%
07:00 +5°C° 0 mm 2 mps 751 mmHg 92%
08:00 +7°C° 0 mm 2 mps 751 mmHg 86%
09:00 +8°C° 0 mm 3 mps 751 mmHg 79%
10:00 +9°C° 0 mm 3 mps 751 mmHg 73%
11:00 +10°C° 0 mm 3 mps 751 mmHg 70%
12:00 +10°C° 0 mm 3 mps 750 mmHg 68%
13:00 +11°C° 0 mm 3 mps 750 mmHg 65%
14:00 +10°C° 0 mm 3 mps 750 mmHg 69%
15:00 +10°C° 0 mm 3 mps 750 mmHg 73%
16:00 +9°C° 0 mm 3 mps 750 mmHg 77%
17:00 +8°C° 0 mm 3 mps 750 mmHg 80%
18:00 +8°C° 0 mm 3 mps 750 mmHg 84%
19:00 +7°C° 0 mm 3 mps 750 mmHg 87%
20:00 +7°C° 0 mm 3 mps 750 mmHg 88%
21:00 +7°C° 0 mm 3 mps 750 mmHg 90%
22:00 +5°C° 0 mm 3 mps 750 mmHg 92%
23:00 +5°C° 0 mm 3 mps 750 mmHg 92%
Show more